Regional Weather Roundup
Issued by NWS Charleston, SC

Current Version | Previous Version | Text Only | Print | Product List | Glossary Off
Versions: 1 2 3 4 5 6 7 8 9 10 11 12 13 14 15 16 17 18 19 20 21 22 23 24 25 26 27 28 29 30 31 32 33 34 35 36 37 38 39 40 41 42 43 44 45 46 47 48 49 50

000
ASUS42 KCHS 240712
RWRCHS

REGIONAL WEATHER ROUNDUP
NATIONAL WEATHER SERVICE CHARLESTON SC
200 AM EST FRI FEB 24 2017

NOTE: "FAIR" INDICATES FEW OR NO CLOUDS BELOW 12,000 FEET WITH NO
SIGNIFICANT WEATHER AND/OR OBSTRUCTIONS TO VISIBILITY.

NOT ALL STATIONS ARE QUALITY CONTROLLED. USE DATA WITH CAUTION...
ESPECIALLY DEWPOINT OBSERVATIONS.

SCZ027-030-031-034>040-042>050-240800-
...SOUTHEAST SOUTH CAROLINA...

CITY           SKY/WX    TMP DP  RH WIND       PRES   REMARKS
N CHARLESTON   CLEAR     59  56  89 NE7       29.86F
WATERFRONT PRK   N/A     61  60  97 N7        29.85F
MOUNT PLEASANT FAIR      59  57  94 CALM      29.87S FOG
JOHNS ISLAND   FAIR      61  59  94 N5        29.86S
PINOPOLIS        N/A     57  57 100 CALM      29.79F
MONCKS CORNER  FAIR      57  55  94 CALM      29.88S
SUMMERVILLE    FAIR      55  55 100 N3        29.88F FOG
BEAUFORT MCAS  CLEAR     61  60  97 N7        29.86S
BEAUFORT ARPT  FAIR      61  59  94 N7        29.86S
HILTON HEAD IS CLEAR     63  61  94 N8        29.86S
WALTERBORO     SUNNY     55  55 100 CALM      29.89S
ALLENDALE      FAIR      59  57  94 CALM      29.88S

...SOUTHERN MIDLANDS AND PEE DEE...

CITY           SKY/WX    TMP DP  RH WIND       PRES   REMARKS
GEORGETOWN     FAIR      54  52  94 CALM      29.89S
KINGSTREE      FAIR      52  50  93 CALM      29.90S
ORANGEBURG     CLEAR     56  55  97 CALM      29.89F
BARNWELL       FAIR      57  55  94 CALM      29.89F
AIKEN          FAIR      52  52 100 CALM      29.93S
MANNING        FAIR      54  50  87 MISG      29.89F
COLUMBIA       CLEAR     54  50  86 CALM      29.89F
SUMTER         CLEAR     54  52  92 N3        29.88F
FLORENCE       CLEAR     56  55  97 NE3       29.90F
MYRTLE BEACH   CLEAR     58  56  93 N5        29.89F
N MYRTLE BEACH PTCLDY    58  57  97 NE6       29.88F

$$

GAZ063-065-086>088-099>101-113>116-118-119-134>141-150-240800-
...SOUTHEAST GEORGIA...

CITY           SKY/WX    TMP DP  RH WIND       PRES   REMARKS
SAVANNAH ARPT  CLEAR     59  57  93 N6        29.87S
HUNTER AAF     CLEAR     61  61 100 N3        29.83F
FORT STEWART   CLEAR     60  58  94 CALM      29.84S
STATESBORO     CLEAR     56  32  39 CALM      29.87F HAZE
SYLVANIA       SUNNY    N/A N/A N/A E5        29.88F
CLAXTON        FAIR     N/A N/A N/A CALM      29.87F

...CSRA...CENTRAL AND FAR SOUTHEAST GEORGIA...

CITY           SKY/WX    TMP DP  RH WIND       PRES   REMARKS
THOMSON        CLEAR     54  54 100 CALM      29.94S
AUGUSTA-BUSH   PTCLDY    55  52  89 CALM      29.89S
AUGUSTA-DANIEL CLEAR     62  54  74 E5        29.90S
SWAINSBORO     FAIR      59  59 100 CALM      29.89S
VIDALIA        PTCLDY    61  61 100 CALM      29.87S
EASTMAN        FOG       54  54 100 CALM      29.90S VSB 1/2
HAZLEHURST     FAIR      61  61 100 CALM      29.86S
ALMA           CLEAR     60  59  96 N3        29.85S
WAYCROSS       CLEAR     62  62 100 CALM      29.85R
JESUP          FAIR      63  59  88 NE3       29.85F
BAXLEY         FAIR      61  61 100 NE5       29.86S
BRUNSWICK      PTCLDY    64  63  94 N3        29.85S
SAINT SIMONS   CLOUDY    65  61  87 N12       29.83S

$$

SCZ027-028-034-036>038-045-046-048>050-GAZ119-141-240800-
...LAKE AND SUPPLEMENTAL COASTAL OBSERVATIONS...

STATION/POSITION TIME  TEMP    WIND        PRES    WAVE   SWELL
                       AIR SEA DIR/SP/G            HT/PER HT/PER/DIR
                 (UTC) (F)     (DEG/KT/KT) (MB)    (FT/S) (FT/S/D)
WINYAH BAY       0545   62      50/  7     1012.0
LAKE MURRAY      0620   61      CALM  /  2 1012.2
ACE BASIN NERRS  NOT AVBL
FORT PULASKI     0648      62  340/  6/  7 1011.1R
SAPELO ISLAND    0600   63      20/  6     1010.0

$$

ANZ835-935-AMZ111-154-330-350-352-354-370-450-454-472-240800-
...C-MAN AND BUOY OBSERVATIONS...

STATION/POSITION TIME  TEMP    WIND        PRES    WAVE   SWELL
                       AIR SEA DIR/SP/G            HT/PER HT/PER/DIR
                 (UTC) (F)     (DEG/KT/KT) (MB)    (FT/S) (FT/S/D)
BUOY 41004       0650   70 70   60/ 10/ 12 1009.8F  10/10  10/130/10
BUOY 41008       0550   64 62   40/ 14/ 16 1009.3    6/10   5/120/10
FOLLY BEACH CMAN 0600   62      20/  7/  8 1011.6F
CAPERS NEARSHORE 0608   62 60   30/ 10/ 14 1011.2F
FRIPP NEARSHORE  0608   63 61   40/ 10/ 12 1010.5F


STATION/POSITION TIME  TEMP    WIND        PRES    WAVE   SWELL
                       AIR SEA DIR/SP/G            HT/PER HT/PER/DIR
                 (UTC) (F)     (DEG/KT/KT) (MB)    (FT/S) (FT/S/D)
5E ST. MARYS GA  0630      64                N/A     6/11   2/100/11
FRYING PAN BUOY  0650   71 72   90/ 14/ 17 1011.1S   8/ 9   7/150/ 9
BUOY 41025       0650   68 73  110/ 16/ 19 1012.9F   6/ 7   3/110/ 8
CAPE LOOKOUT NC  0700   65     130/  8/  9 1012.4F
BUOY 41002       0650   69 69   90/ 19/ 25 1008.7R  13/ 9   8/130/ 9
BUOY 41010       NOT AVBL
ST AUGUSTINE FL  0700   66 67  360/ 16/ 17 1009.1F


$$




USA.gov is the U.S. government's official web portal to all federal, state and local government web resources and services.